Tracking 19562 objects as of 23-Mar-2019
HD Live streaming from Space Station
objects crossing your sky now

LEMUR 2 CHRISTINAHOLT

Track LEMUR 2 CHRISTINAHOLT now!
10-day predictions
LEMUR 2 CHRISTINAHOLT is classified as:


NORAD ID: 43882
Int'l Code: 2018-111G
Perigee: 577.4 km
Apogee: 592.9 km
Inclination: 97.7 °
Period: 96.2 minutes
Semi major axis: 6956 km
RCS: Unknown
Launch date: December 27, 2018
Source: United States (US)
Launch site: VOSTOCHNY COSMODROME (VOSTO)
aabbcc
Your satellite tracking list
Your tracking list is empty




NASA's NSSDC Master Catalog

Two Line Element Set (TLE):
1 43882U 18111G   19081.87444048  .00000611  00000-0  59029-4 0  9992
2 43882  97.7247 351.2092 0011097 324.4219  35.6261 14.96407073 10812
Source of the keplerian elements: AFSPC